{"data":{"norad_id":69021,"intl_designator":"2026-100AT","name":"HELIOS","alt_names":[],"object_type":"PAYLOAD","status":"ACTIVE","operator":null,"country":"GREC","launch_date":"2026-05-03","launch_site_code":"AFWTR","launch_vehicle":null,"mission":null,"orbit_class":"UNKNOWN","rcs_meters":null,"size_class":null,"mass_kg":null,"dimensions":null,"purposes":[],"wikipedia_slug":null,"has_3d_model":false,"image_url":null,"decayed_at":null,"tle_current":{"epoch":"2026-05-25T04:41:57.473376Z","epoch_age_seconds":52082,"freshness":"FRESH","line1":"1 69021U 26100AT  26145.19580409  .00008448  00000+0  39893-3 0  9999","line2":"2 69021  97.4051  43.4018 0006641  74.8239 285.3730 15.19659578  3317","mean_motion":15.19659578,"eccentricity":0.0006641,"inclination_deg":97.4051,"raan_deg":43.4018,"arg_perigee_deg":74.8239,"mean_anomaly_deg":285.373,"bstar":0.00039893,"rev_number":331,"period_min":94.758064295897,"perigee_km":502.29630557038,"apogee_km":511.44097005853,"semimajor_km":6885.0056378145,"source":"CELESTRAK","updated_at":"2026-05-25T13:38:09.041944Z"}}}